Location: Newark
(45.2500°N, 7.5833°E)
Time: 02:37:51
(UTC+00:00)

Vanguard 3 - Pass Details

Date: 27 January 2020
Orbit: 508 x 3263 km, 33.3° (Epoch: 25 February)

Event Time Altitude Azimuth Distance (km) Brightness Sun altitude
Rises 22:18:36 0° 277° (W) 6,952 12.2 -58.0°
Reaches altitude 10° 22:24:50 10° 267° (W) 5,591 11.5 -58.7°
Enters shadow 22:30:34 19° 250° (WSW) 4,427 10.8 -59.3°
Maximum altitude 22:36:04 24° 222° (SW) 3,641 - -59.8°
Drops below altitude 10° 22:44:01 10° 174° (S) 3,827 - -60.5°
Sets 22:47:20 0° 160° (SSE) 4,416 - -60.8°
